• In United Kingdom
  • List of Countries
  • For 7 days
  • Water Temperature
  • Satellite Maps
  • Weather Map
  • Weather Widgets
  • user-avatar
    Login

    Hourly Weather Elbasan

    Today, 24 June, Saturday

    Time Temperature Precipitation Wind Pressure Humidity
    00:00 +17°C° 0 mm 0 mps 736 mmHg 80%
    01:00 +17°C° 0 mm 0 mps 736 mmHg 80%
    02:00 +17°C° 0 mm 0 mps 736 mmHg 81%
    03:00 +16°C° 0 mm 0 mps 736 mmHg 81%
    04:00 +16°C° 0 mm 0 mps 736 mmHg 82%
    05:00 +19°C° 0 mm 0 mps 736 mmHg 71%
    06:00 +23°C° 0 mm 0 mps 736 mmHg 60%
    07:00 +28°C° 0 mm 1 mps 737 mmHg 49%
    08:00 +30°C° 0 mm 1 mps 737 mmHg 44%
    09:00 +32°C° 0 mm 1 mps 737 mmHg 39%
    10:00 +34°C° 0 mm 1 mps 737 mmHg 34%
    11:00 +35°C° 0 mm 2 mps 736 mmHg 33%
    12:00 +36°C° 0 mm 2 mps 736 mmHg 32%
    13:00 +37°C° 0 mm 2 mps 736 mmHg 31%
    14:00 +36°C° 0.1 mm 2 mps 736 mmHg 34%
    15:00 +35°C° 0.1 mm 2 mps 736 mmHg 37%
    16:00 +34°C° 0.1 mm 2 mps 735 mmHg 40%
    17:00 +31°C° 0.1 mm 2 mps 735 mmHg 50%
    18:00 +28°C° 0.1 mm 1 mps 735 mmHg 60%
    19:00 +25°C° 0.1 mm 1 mps 735 mmHg 70%
    20:00 +24°C° 0.1 mm 1 mps 735 mmHg 72%
    21:00 +24°C° 0.1 mm 1 mps 736 mmHg 74%
    22:00 +23°C° 0.1 mm 1 mps 736 mmHg 76%
    23:00 +23°C° 0.1 mm 1 mps 736 mmHg 77%

    Tomorrow, 25 June, Sunday

    Time Temperature Precipitation Wind Pressure Humidity
    00:00 +22°C° 0.1 mm 1 mps 736 mmHg 77%
    01:00 +22°C° 0.1 mm 1 mps 735 mmHg 78%
    02:00 +22°C° 0 mm 1 mps 735 mmHg 79%
    03:00 +21°C° 0 mm 1 mps 735 mmHg 79%
    04:00 +21°C° 0 mm 1 mps 735 mmHg 80%
    05:00 +24°C° 0 mm 1 mps 735 mmHg 72%
    06:00 +26°C° 0 mm 1 mps 735 mmHg 65%
    07:00 +29°C° 0 mm 1 mps 736 mmHg 57%
    08:00 +31°C° 0 mm 1 mps 736 mmHg 50%
    09:00 +33°C° 0 mm 1 mps 736 mmHg 43%
    10:00 +35°C° 0 mm 1 mps 735 mmHg 36%
    11:00 +35°C° 0.4 mm 1 mps 735 mmHg 36%
    12:00 +36°C° 0.4 mm 2 mps 735 mmHg 36%
    13:00 +37°C° 0.4 mm 2 mps 734 mmHg 36%
    14:00 +36°C° 0.4 mm 2 mps 734 mmHg 39%
    15:00 +35°C° 0.4 mm 2 mps 734 mmHg 42%
    16:00 +34°C° 0.4 mm 2 mps 733 mmHg 45%
    17:00 +31°C° 0 mm 2 mps 733 mmHg 54%
    18:00 +28°C° 0 mm 1 mps 733 mmHg 63%
    19:00 +26°C° 0 mm 1 mps 733 mmHg 72%
    20:00 +25°C° 0.1 mm 1 mps 733 mmHg 74%
    21:00 +23°C° 0.1 mm 1 mps 733 mmHg 77%
    22:00 +22°C° 0.1 mm 1 mps 733 mmHg 79%
    23:00 +20°C° 0.1 mm 0 mps 733 mmHg 81%

    Day after tomorrow, 26 June, Monday

    Time Temperature Precipitation Wind Pressure Humidity
    00:00 +19°C° 0.1 mm 0 mps 733 mmHg 82%
    01:00 +19°C° 0.1 mm 0 mps 733 mmHg 84%
    02:00 +18°C° 0 mm 0 mps 733 mmHg 84%
    03:00 +18°C° 0 mm 0 mps 733 mmHg 84%
    04:00 +18°C° 0 mm 0 mps 733 mmHg 85%
    05:00 +21°C° 0 mm 0 mps 733 mmHg 74%
    06:00 +24°C° 0 mm 0 mps 733 mmHg 63%
    07:00 +27°C° 0 mm 0 mps 734 mmHg 53%
    08:00 +29°C° 0 mm 0 mps 734 mmHg 47%
    09:00 +32°C° 0 mm 1 mps 734 mmHg 41%
    10:00 +34°C° 0 mm 1 mps 734 mmHg 34%
    11:00 +36°C° 0 mm 2 mps 734 mmHg 33%
    12:00 +36°C° 0 mm 2 mps 734 mmHg 32%
    13:00 +37°C° 0 mm 3 mps 734 mmHg 31%
    14:00 +36°C° 0.2 mm 3 mps 733 mmHg 34%
    15:00 +35°C° 0.2 mm 3 mps 733 mmHg 36%
    16:00 +34°C° 0.2 mm 3 mps 733 mmHg 39%
    17:00 +31°C° 0.1 mm 2 mps 733 mmHg 48%
    18:00 +28°C° 0.1 mm 2 mps 733 mmHg 58%
    19:00 +25°C° 0.1 mm 1 mps 733 mmHg 68%
    20:00 +24°C° 0 mm 1 mps 733 mmHg 72%
    21:00 +23°C° 0 mm 1 mps 734 mmHg 75%
    22:00 +20°C° 0 mm 0 mps 734 mmHg 78%
    23:00 +19°C° 0.1 mm 0 mps 734 mmHg 79%

    27 June, Tuesday

    Time Temperature Precipitation Wind Pressure Humidity
    00:00 +19°C° 0.1 mm 0 mps 734 mmHg 80%
    01:00 +19°C° 0.1 mm 0 mps 734 mmHg 81%
    02:00 +21°C° 0 mm 1 mps 734 mmHg 82%
    03:00 +21°C° 0 mm 1 mps 734 mmHg 83%
    04:00 +20°C° 0 mm 1 mps 734 mmHg 84%
    05:00 +23°C° 0 mm 1 mps 734 mmHg 75%
    06:00 +26°C° 0 mm 1 mps 735 mmHg 66%
    07:00 +27°C° 0 mm 0 mps 735 mmHg 57%
    08:00 +31°C° 0.1 mm 1 mps 735 mmHg 51%
    09:00 +32°C° 0.1 mm 1 mps 735 mmHg 45%
    10:00 +34°C° 0.1 mm 1 mps 735 mmHg 40%
    11:00 +36°C° 0.2 mm 2 mps 735 mmHg 38%
    12:00 +36°C° 0.2 mm 2 mps 735 mmHg 36%
    13:00 +36°C° 0.2 mm 3 mps 734 mmHg 35%
    14:00 +36°C° 0.2 mm 3 mps 734 mmHg 36%
    15:00 +35°C° 0.2 mm 3 mps 734 mmHg 37%
    16:00 +35°C° 0.2 mm 3 mps 734 mmHg 38%
    17:00 +31°C° 0 mm 2 mps 734 mmHg 48%
    18:00 +28°C° 0 mm 1 mps 734 mmHg 58%
    19:00 +25°C° 0 mm 1 mps 734 mmHg 68%
    20:00 +24°C° 0 mm 1 mps 734 mmHg 72%
    21:00 +23°C° 0 mm 1 mps 734 mmHg 77%
    22:00 +21°C° 0 mm 1 mps 734 mmHg 81%
    23:00 +21°C° 0 mm 1 mps 734 mmHg 82%

    28 June, Wednesday

    Time Temperature Precipitation Wind Pressure Humidity
    00:00 +18°C° 0 mm 0 mps 734 mmHg 82%
    01:00 +18°C° 0 mm 0 mps 734 mmHg 83%
    02:00 +18°C° 0 mm 0 mps 734 mmHg 83%
    03:00 +17°C° 0 mm 0 mps 733 mmHg 83%
    04:00 +17°C° 0 mm 0 mps 733 mmHg 83%
    05:00 +21°C° 0 mm 0 mps 734 mmHg 71%
    06:00 +24°C° 0 mm 0 mps 734 mmHg 58%
    07:00 +27°C° 0 mm 0 mps 734 mmHg 46%
    08:00 +31°C° 0 mm 1 mps 734 mmHg 41%
    09:00 +33°C° 0 mm 1 mps 734 mmHg 35%
    10:00 +35°C° 0 mm 1 mps 734 mmHg 30%
    11:00 +36°C° 0 mm 2 mps 734 mmHg 29%
    12:00 +37°C° 0 mm 3 mps 734 mmHg 29%
    13:00 +37°C° 0 mm 3 mps 734 mmHg 29%
    14:00 +37°C° 0 mm 3 mps 733 mmHg 31%
    15:00 +36°C° 0 mm 3 mps 733 mmHg 33%
    16:00 +36°C° 0 mm 3 mps 733 mmHg 35%
    17:00 +32°C° 0 mm 2 mps 733 mmHg 45%
    18:00 +29°C° 0 mm 2 mps 733 mmHg 56%
    19:00 +26°C° 0 mm 1 mps 733 mmHg 66%
    20:00 +24°C° 0 mm 1 mps 733 mmHg 70%
    21:00 +23°C° 0 mm 1 mps 733 mmHg 73%
    22:00 +22°C° 0 mm 1 mps 733 mmHg 77%
    23:00 +21°C° 0 mm 1 mps 733 mmHg 78%

    29 June, Thursday

    Time Temperature Precipitation Wind Pressure Humidity
    00:00 +21°C° 0 mm 1 mps 733 mmHg 80%
    01:00 +20°C° 0 mm 1 mps 733 mmHg 81%
    02:00 +20°C° 0 mm 1 mps 733 mmHg 81%
    03:00 +20°C° 0 mm 1 mps 733 mmHg 81%
    04:00 +20°C° 0 mm 1 mps 733 mmHg 81%
    05:00 +23°C° 0 mm 1 mps 733 mmHg 69%
    06:00 +27°C° 0 mm 1 mps 734 mmHg 57%
    07:00 +28°C° 0 mm 0 mps 734 mmHg 46%
    08:00 +32°C° 0 mm 1 mps 734 mmHg 40%
    09:00 +34°C° 0 mm 1 mps 734 mmHg 33%
    10:00 +35°C° 0 mm 1 mps 734 mmHg 27%
    11:00 +37°C° 0 mm 2 mps 734 mmHg 26%
    12:00 +38°C° 0 mm 2 mps 734 mmHg 25%
    13:00 +39°C° 0 mm 2 mps 734 mmHg 24%
    14:00 +38°C° 0 mm 3 mps 733 mmHg 26%
    15:00 +38°C° 0 mm 3 mps 733 mmHg 28%
    16:00 +37°C° 0 mm 3 mps 733 mmHg 30%
    17:00 +34°C° 0 mm 2 mps 733 mmHg 41%
    18:00 +29°C° 0 mm 2 mps 733 mmHg 52%
    19:00 +26°C° 0 mm 1 mps 733 mmHg 63%
    20:00 +25°C° 0 mm 1 mps 733 mmHg 66%
    21:00 +24°C° 0 mm 1 mps 733 mmHg 69%
    22:00 +23°C° 0 mm 1 mps 734 mmHg 71%
    23:00 +23°C° 0 mm 1 mps 734 mmHg 71%
    Show more